Year,Month,Day,Hour,Minute,Value (Times are PST for temperature in C)
2018,09,29,00,00,11.70
2018,09,29,00,01,11.60
2018,09,29,00,02,11.60
2018,09,29,00,03,11.60
2018,09,29,00,04,11.50
2018,09,29,00,05,11.50
2018,09,29,00,06,11.40
2018,09,29,00,07,11.40
2018,09,29,00,08,11.40
2018,09,29,00,09,11.30
2018,09,29,00,10,11.30
2018,09,29,00,11,11.30
2018,09,29,00,12,11.30
2018,09,29,00,13,11.30
2018,09,29,00,14,11.30
2018,09,29,00,15,11.30
2018,09,29,00,16,11.30
2018,09,29,00,17,11.30
2018,09,29,00,18,11.30
2018,09,29,00,19,11.30
2018,09,29,00,20,11.30
2018,09,29,00,21,11.30
2018,09,29,00,22,11.40
2018,09,29,00,23,11.40
2018,09,29,00,24,11.40
2018,09,29,00,25,11.40
2018,09,29,00,26,11.40
2018,09,29,00,27,11.40
2018,09,29,00,28,11.40
2018,09,29,00,29,11.40
2018,09,29,00,30,11.40
2018,09,29,00,31,11.50
2018,09,29,00,32,11.50
2018,09,29,00,33,11.50
2018,09,29,00,34,11.50
2018,09,29,00,35,11.50
2018,09,29,00,36,11.50
2018,09,29,00,37,11.60
2018,09,29,00,38,11.60
2018,09,29,00,39,11.60
2018,09,29,00,40,11.60
2018,09,29,00,41,11.60
2018,09,29,00,42,11.60
2018,09,29,00,43,11.50
2018,09,29,00,44,11.50
2018,09,29,00,45,11.50
2018,09,29,00,46,11.50
2018,09,29,00,47,11.50
2018,09,29,00,48,11.50
2018,09,29,00,49,11.50
2018,09,29,00,50,11.50
2018,09,29,00,51,11.50
2018,09,29,00,52,11.50
2018,09,29,00,53,11.50
2018,09,29,00,54,11.50
2018,09,29,00,55,11.50
2018,09,29,00,56,11.40
2018,09,29,00,57,11.40
2018,09,29,00,58,11.40
2018,09,29,00,59,11.40
2018,09,29,01,00,11.40
2018,09,29,01,01,11.40
2018,09,29,01,02,11.30
2018,09,29,01,03,11.30
2018,09,29,01,04,11.30
2018,09,29,01,05,11.30
2018,09,29,01,06,11.30
2018,09,29,01,07,11.30
2018,09,29,01,08,11.30
2018,09,29,01,09,11.30
2018,09,29,01,10,11.30
2018,09,29,01,11,11.30
2018,09,29,01,12,11.30
2018,09,29,01,13,11.30
2018,09,29,01,14,11.30
2018,09,29,01,15,11.30
2018,09,29,01,16,11.30
2018,09,29,01,17,11.30
2018,09,29,01,18,11.30
2018,09,29,01,19,11.30
2018,09,29,01,20,11.30
2018,09,29,01,21,11.30
2018,09,29,01,22,11.30
2018,09,29,01,23,11.30
2018,09,29,01,24,11.30
2018,09,29,01,25,11.30
2018,09,29,01,26,11.30
2018,09,29,01,27,11.30
2018,09,29,01,28,11.30
2018,09,29,01,29,11.30
2018,09,29,01,30,11.20
2018,09,29,01,31,11.20
2018,09,29,01,32,11.20
2018,09,29,01,33,11.20
2018,09,29,01,34,11.20
2018,09,29,01,35,11.10
2018,09,29,01,36,11.10
2018,09,29,01,37,11.10
2018,09,29,01,38,11.10
2018,09,29,01,39,11.10
2018,09,29,01,40,11.10
2018,09,29,01,41,11.10
2018,09,29,01,42,11.00
2018,09,29,01,43,11.00
2018,09,29,01,44,11.00
2018,09,29,01,45,11.00
2018,09,29,01,46,11.00
2018,09,29,01,47,11.00
2018,09,29,01,48,11.00
2018,09,29,01,49,11.00
2018,09,29,01,50,11.00
2018,09,29,01,51,10.90
2018,09,29,01,52,10.90
2018,09,29,01,53,10.90
2018,09,29,01,54,10.90
2018,09,29,01,55,10.90
2018,09,29,01,56,10.90
2018,09,29,01,57,10.90
2018,09,29,01,58,10.90
2018,09,29,01,59,10.90
2018,09,29,02,00,10.90
2018,09,29,02,01,10.90
2018,09,29,02,02,10.90
2018,09,29,02,03,10.80
2018,09,29,02,04,10.80
2018,09,29,02,05,10.80
2018,09,29,02,06,10.80
2018,09,29,02,07,10.80
2018,09,29,02,08,10.80
2018,09,29,02,09,10.80
2018,09,29,02,10,10.80
2018,09,29,02,11,10.80
2018,09,29,02,12,10.70
2018,09,29,02,13,10.70
2018,09,29,02,14,10.70
2018,09,29,02,15,10.70
2018,09,29,02,16,10.70
2018,09,29,02,17,10.70
2018,09,29,02,18,10.70
2018,09,29,02,19,10.70
2018,09,29,02,20,10.70
2018,09,29,02,21,10.70
2018,09,29,02,22,10.60
2018,09,29,02,23,10.60
2018,09,29,02,24,10.60
2018,09,29,02,25,10.60
2018,09,29,02,26,10.60
2018,09,29,02,27,10.60
2018,09,29,02,28,10.60
2018,09,29,02,29,10.60
2018,09,29,02,30,10.60
2018,09,29,02,31,10.60
2018,09,29,02,32,10.60
2018,09,29,02,33,10.60
2018,09,29,02,34,10.60
2018,09,29,02,35,10.60
2018,09,29,02,36,10.60
2018,09,29,02,37,10.60
2018,09,29,02,38,10.60
2018,09,29,02,39,10.60
2018,09,29,02,40,10.50
2018,09,29,02,41,10.50
2018,09,29,02,42,10.50
2018,09,29,02,43,10.50
2018,09,29,02,44,10.50
2018,09,29,02,45,10.40
2018,09,29,02,46,10.40
2018,09,29,02,47,10.40
2018,09,29,02,48,10.40
2018,09,29,02,49,10.40
2018,09,29,02,50,10.40
2018,09,29,02,51,10.40
2018,09,29,02,52,10.40
2018,09,29,02,53,10.40
2018,09,29,02,54,10.40
2018,09,29,02,55,10.40
2018,09,29,02,56,10.40
2018,09,29,02,57,10.40
2018,09,29,02,58,10.50
2018,09,29,02,59,10.50
2018,09,29,03,00,10.50
2018,09,29,03,01,10.50
2018,09,29,03,02,10.50
2018,09,29,03,03,10.40
2018,09,29,03,04,10.40
2018,09,29,03,05,10.40
2018,09,29,03,06,10.40
2018,09,29,03,07,10.40
2018,09,29,03,08,10.40
2018,09,29,03,09,10.40
2018,09,29,03,10,10.40
2018,09,29,03,11,10.40
2018,09,29,03,12,10.30
2018,09,29,03,13,10.30
2018,09,29,03,14,10.30
2018,09,29,03,15,10.30
2018,09,29,03,16,10.30
2018,09,29,03,17,10.30
2018,09,29,03,18,10.30
2018,09,29,03,19,10.20
2018,09,29,03,20,10.20
2018,09,29,03,21,10.20
2018,09,29,03,22,10.20
2018,09,29,03,23,10.20
2018,09,29,03,24,10.20
2018,09,29,03,25,10.20
2018,09,29,03,26,10.20
2018,09,29,03,27,10.20
2018,09,29,03,28,10.20
2018,09,29,03,29,10.10
2018,09,29,03,30,10.10
2018,09,29,03,31,10.10
2018,09,29,03,32,10.00
2018,09,29,03,33,10.00
2018,09,29,03,34,10.00
2018,09,29,03,35,10.00
2018,09,29,03,36,10.00
2018,09,29,03,37,10.00
2018,09,29,03,38,10.00
2018,09,29,03,39,9.90
2018,09,29,03,40,9.90
2018,09,29,03,41,9.90
2018,09,29,03,42,9.80
2018,09,29,03,43,9.80
2018,09,29,03,44,9.80
2018,09,29,03,45,9.80
2018,09,29,03,46,9.80
2018,09,29,03,47,9.90
2018,09,29,03,48,9.90
2018,09,29,03,49,9.90
2018,09,29,03,50,9.90
2018,09,29,03,51,9.90
2018,09,29,03,52,9.90
2018,09,29,03,53,9.90
2018,09,29,03,54,9.90
2018,09,29,03,55,9.90
2018,09,29,03,56,9.90
2018,09,29,03,57,9.90
2018,09,29,03,58,9.90
2018,09,29,03,59,9.90
2018,09,29,04,00,9.90
2018,09,29,04,01,9.90
2018,09,29,04,02,9.90
2018,09,29,04,03,9.90
2018,09,29,04,04,9.80
2018,09,29,04,05,9.80
2018,09,29,04,06,9.80
2018,09,29,04,07,9.80
2018,09,29,04,08,9.80
2018,09,29,04,09,9.80
2018,09,29,04,10,9.70
2018,09,29,04,11,9.70
2018,09,29,04,12,9.70
2018,09,29,04,13,9.80
2018,09,29,04,14,9.80
2018,09,29,04,15,9.80
2018,09,29,04,16,9.80
2018,09,29,04,17,9.80
2018,09,29,04,18,9.80
2018,09,29,04,19,9.80
2018,09,29,04,20,9.80
2018,09,29,04,21,9.80
2018,09,29,04,22,9.80
2018,09,29,04,23,9.80
2018,09,29,04,24,9.80
2018,09,29,04,25,9.80
2018,09,29,04,26,9.80
2018,09,29,04,27,9.80
2018,09,29,04,28,9.80
2018,09,29,04,29,9.80
2018,09,29,04,30,9.70
2018,09,29,04,31,9.70
2018,09,29,04,32,9.70
2018,09,29,04,33,9.70
2018,09,29,04,34,9.70
2018,09,29,04,35,9.60
2018,09,29,04,36,9.60
2018,09,29,04,37,9.60
2018,09,29,04,38,9.60
2018,09,29,04,39,9.60
2018,09,29,04,40,9.60
2018,09,29,04,41,9.60
2018,09,29,04,42,9.60
2018,09,29,04,43,9.60
2018,09,29,04,44,9.60
2018,09,29,04,45,9.50
2018,09,29,04,46,9.50
2018,09,29,04,47,9.50
2018,09,29,04,48,9.50
2018,09,29,04,49,9.50
2018,09,29,04,50,9.50
2018,09,29,04,51,9.60
2018,09,29,04,52,9.60
2018,09,29,04,53,9.60
2018,09,29,04,54,9.60
2018,09,29,04,55,9.60
2018,09,29,04,56,9.60
2018,09,29,04,57,9.60
2018,09,29,04,58,9.60
2018,09,29,04,59,9.60
2018,09,29,05,00,9.60
2018,09,29,05,01,9.60
2018,09,29,05,02,9.50
2018,09,29,05,03,9.50
2018,09,29,05,04,9.50
2018,09,29,05,05,9.50
2018,09,29,05,06,9.50
2018,09,29,05,07,9.50
2018,09,29,05,08,9.50
2018,09,29,05,09,9.50
2018,09,29,05,10,9.40
2018,09,29,05,11,9.40
2018,09,29,05,12,9.40
2018,09,29,05,13,9.40
2018,09,29,05,14,9.40
2018,09,29,05,15,9.40
2018,09,29,05,16,9.40
2018,09,29,05,17,9.40
2018,09,29,05,18,9.40
2018,09,29,05,19,9.40
2018,09,29,05,20,9.30
2018,09,29,05,21,9.30
2018,09,29,05,22,9.30
2018,09,29,05,23,9.30
2018,09,29,05,24,9.30
2018,09,29,05,25,9.30
2018,09,29,05,26,9.30
2018,09,29,05,27,9.30
2018,09,29,05,28,9.30
2018,09,29,05,29,9.20
2018,09,29,05,30,9.20
2018,09,29,05,31,9.20
2018,09,29,05,32,9.20
2018,09,29,05,33,9.20
2018,09,29,05,34,9.10
2018,09,29,05,35,9.10
2018,09,29,05,36,9.10
2018,09,29,05,37,9.10
2018,09,29,05,38,9.10
2018,09,29,05,39,9.10
2018,09,29,05,40,9.10
2018,09,29,05,41,9.00
2018,09,29,05,42,9.00
2018,09,29,05,43,9.00
2018,09,29,05,44,9.00
2018,09,29,05,45,9.00
2018,09,29,05,46,9.00
2018,09,29,05,47,9.00
2018,09,29,05,48,9.00
2018,09,29,05,49,9.00
2018,09,29,05,50,9.00
2018,09,29,05,51,8.90
2018,09,29,05,52,8.90
2018,09,29,05,53,8.90
2018,09,29,05,54,8.90
2018,09,29,05,55,8.90
2018,09,29,05,56,8.90
2018,09,29,05,57,9.00
2018,09,29,05,58,8.90
2018,09,29,05,59,8.90
2018,09,29,06,00,8.90
2018,09,29,06,01,8.90
2018,09,29,06,02,8.90
2018,09,29,06,03,8.90
2018,09,29,06,04,8.90
2018,09,29,06,05,8.90
2018,09,29,06,06,8.90
2018,09,29,06,07,9.00
2018,09,29,06,08,9.00
2018,09,29,06,09,9.10
2018,09,29,06,10,9.10
2018,09,29,06,11,9.10
2018,09,29,06,12,9.20
2018,09,29,06,13,9.20
2018,09,29,06,14,9.20
2018,09,29,06,15,9.20
2018,09,29,06,16,9.20
2018,09,29,06,17,9.20
2018,09,29,06,18,9.20
2018,09,29,06,19,9.20
2018,09,29,06,20,9.20
2018,09,29,06,21,9.20
2018,09,29,06,22,9.30
2018,09,29,06,23,9.30
2018,09,29,06,24,9.30
2018,09,29,06,25,9.30
2018,09,29,06,26,9.30
2018,09,29,06,27,9.30
2018,09,29,06,28,9.40
2018,09,29,06,29,9.40
2018,09,29,06,30,9.40
2018,09,29,06,31,9.40
2018,09,29,06,32,9.40
2018,09,29,06,33,9.40
2018,09,29,06,34,9.40
2018,09,29,06,35,9.40
2018,09,29,06,36,9.40
2018,09,29,06,37,9.40
2018,09,29,06,38,9.40
2018,09,29,06,39,9.40
2018,09,29,06,40,9.40
2018,09,29,06,41,9.40
2018,09,29,06,42,9.40
2018,09,29,06,43,9.40
2018,09,29,06,44,9.40
2018,09,29,06,45,9.40
2018,09,29,06,46,9.40
2018,09,29,06,47,9.40
2018,09,29,06,48,9.40
2018,09,29,06,49,9.40
2018,09,29,06,50,9.40
2018,09,29,06,51,9.50
2018,09,29,06,52,9.50
2018,09,29,06,53,9.50
2018,09,29,06,54,9.50
2018,09,29,06,55,9.50
2018,09,29,06,56,9.50
2018,09,29,06,57,9.40
2018,09,29,06,58,9.40
2018,09,29,06,59,9.40
2018,09,29,07,00,9.40
2018,09,29,07,01,9.40
2018,09,29,07,02,9.40
2018,09,29,07,03,9.40
2018,09,29,07,04,9.40
2018,09,29,07,05,9.40
2018,09,29,07,06,9.40
2018,09,29,07,07,9.40
2018,09,29,07,08,9.40
2018,09,29,07,09,9.40
2018,09,29,07,10,9.50
2018,09,29,07,11,9.50
2018,09,29,07,12,9.50
2018,09,29,07,13,9.50
2018,09,29,07,14,9.50
2018,09,29,07,15,9.60
2018,09,29,07,16,9.60
2018,09,29,07,17,9.60
2018,09,29,07,18,9.60
2018,09,29,07,19,9.60
2018,09,29,07,20,9.60
2018,09,29,07,21,9.60
2018,09,29,07,22,9.60
2018,09,29,07,23,9.60
2018,09,29,07,24,9.60
2018,09,29,07,25,9.60
2018,09,29,07,26,9.50
2018,09,29,07,27,9.50
2018,09,29,07,28,9.50
2018,09,29,07,29,9.50
2018,09,29,07,30,9.50
2018,09,29,07,31,9.50
2018,09,29,07,32,9.40
2018,09,29,07,33,9.40
2018,09,29,07,34,9.40
2018,09,29,07,35,9.40
2018,09,29,07,36,9.40
2018,09,29,07,37,9.40
2018,09,29,07,38,9.40
2018,09,29,07,39,9.40
2018,09,29,07,40,9.40
2018,09,29,07,41,9.50
2018,09,29,07,42,9.50
2018,09,29,07,43,9.50
2018,09,29,07,44,9.60
2018,09,29,07,45,9.60
2018,09,29,07,46,9.60
2018,09,29,07,47,9.60
2018,09,29,07,48,9.60
2018,09,29,07,49,9.60
2018,09,29,07,50,9.60
2018,09,29,07,51,9.60
2018,09,29,07,52,9.60
2018,09,29,07,53,9.60
2018,09,29,07,54,9.60
2018,09,29,07,55,9.60
2018,09,29,07,56,9.60
2018,09,29,07,57,9.60
2018,09,29,07,58,9.70
2018,09,29,07,59,9.70
2018,09,29,08,00,9.70
2018,09,29,08,01,9.70
2018,09,29,08,02,9.80
2018,09,29,08,03,9.80
2018,09,29,08,04,9.80
2018,09,29,08,05,9.80
2018,09,29,08,06,9.80
2018,09,29,08,07,9.80
2018,09,29,08,08,9.90
2018,09,29,08,09,9.90
2018,09,29,08,10,9.90
2018,09,29,08,11,9.90
2018,09,29,08,12,10.00
2018,09,29,08,13,10.00
2018,09,29,08,14,10.00
2018,09,29,08,15,10.10
2018,09,29,08,16,10.10
2018,09,29,08,17,10.10
2018,09,29,08,18,10.10
2018,09,29,08,19,10.20
2018,09,29,08,20,10.20
2018,09,29,08,21,10.20
2018,09,29,08,22,10.20
2018,09,29,08,23,10.30
2018,09,29,08,24,10.30
2018,09,29,08,25,10.30
2018,09,29,08,26,10.30
2018,09,29,08,27,10.40
2018,09,29,08,28,10.40
2018,09,29,08,29,10.40
2018,09,29,08,30,10.50
2018,09,29,08,31,10.50
2018,09,29,08,32,10.60
2018,09,29,08,33,10.70
2018,09,29,08,34,10.70
2018,09,29,08,35,10.70
2018,09,29,08,36,10.80
2018,09,29,08,37,10.80
2018,09,29,08,38,10.90
2018,09,29,08,39,10.90
2018,09,29,08,40,10.90
2018,09,29,08,41,11.00
2018,09,29,08,42,11.00
2018,09,29,08,43,11.10
2018,09,29,08,44,11.10
2018,09,29,08,45,11.10
2018,09,29,08,46,11.20
2018,09,29,08,47,11.20
2018,09,29,08,48,11.30
2018,09,29,08,49,11.40
2018,09,29,08,50,11.40
2018,09,29,08,51,11.50
2018,09,29,08,52,11.60
2018,09,29,08,53,11.70
2018,09,29,08,54,11.80
2018,09,29,08,55,11.80
2018,09,29,08,56,11.90
2018,09,29,08,57,12.00
2018,09,29,08,58,12.00
2018,09,29,08,59,12.10
2018,09,29,09,00,12.20
2018,09,29,09,01,12.30
2018,09,29,09,02,12.30
2018,09,29,09,03,12.40
2018,09,29,09,04,12.50
2018,09,29,09,05,12.60
2018,09,29,09,06,12.60
2018,09,29,09,07,12.70
2018,09,29,09,08,12.70
2018,09,29,09,09,12.80
2018,09,29,09,10,12.80
2018,09,29,09,11,12.80
2018,09,29,09,12,12.90
2018,09,29,09,13,12.90
2018,09,29,09,14,13.00
2018,09,29,09,15,13.00
2018,09,29,09,16,13.10
2018,09,29,09,17,13.20
2018,09,29,09,18,13.20
2018,09,29,09,19,13.20
2018,09,29,09,20,13.30
2018,09,29,09,21,13.30
2018,09,29,09,22,13.30
2018,09,29,09,23,13.40
2018,09,29,09,24,13.50
2018,09,29,09,25,13.60
2018,09,29,09,26,13.70
2018,09,29,09,27,13.70
2018,09,29,09,28,13.80
2018,09,29,09,29,13.90
2018,09,29,09,30,14.00
2018,09,29,09,31,14.00
2018,09,29,09,32,14.10
2018,09,29,09,33,14.00
2018,09,29,09,34,14.00
2018,09,29,09,35,14.00
2018,09,29,09,36,14.10
2018,09,29,09,37,14.10
2018,09,29,09,38,14.10
2018,09,29,09,39,14.10
2018,09,29,09,40,14.10
2018,09,29,09,41,14.20
2018,09,29,09,42,14.20
2018,09,29,09,43,14.20
2018,09,29,09,44,14.20
2018,09,29,09,45,14.30
2018,09,29,09,46,14.30
2018,09,29,09,47,14.30
2018,09,29,09,48,14.40
2018,09,29,09,49,14.40
2018,09,29,09,50,14.40
2018,09,29,09,51,14.50
2018,09,29,09,52,14.50
2018,09,29,09,53,14.60
2018,09,29,09,54,14.60
2018,09,29,09,55,14.70
2018,09,29,09,56,14.70
2018,09,29,09,57,14.80
2018,09,29,09,58,14.90
2018,09,29,09,59,15.00
2018,09,29,10,00,15.10
2018,09,29,10,01,15.20
2018,09,29,10,02,15.30
2018,09,29,10,03,15.30
2018,09,29,10,04,15.40
2018,09,29,10,05,15.40
2018,09,29,10,06,15.40
2018,09,29,10,07,15.40
2018,09,29,10,08,15.50
2018,09,29,10,09,15.50
2018,09,29,10,10,15.50
2018,09,29,10,11,15.60
2018,09,29,10,12,15.60
2018,09,29,10,13,15.60
2018,09,29,10,14,15.60
2018,09,29,10,15,15.60
2018,09,29,10,16,15.70
2018,09,29,10,17,15.70
2018,09,29,10,18,15.70
2018,09,29,10,19,15.80
2018,09,29,10,20,15.80
2018,09,29,10,21,15.80
2018,09,29,10,22,15.80
2018,09,29,10,23,15.90
2018,09,29,10,24,15.90
2018,09,29,10,25,15.90
2018,09,29,10,26,15.90
2018,09,29,10,27,16.00
2018,09,29,10,28,16.00
2018,09,29,10,29,16.10
2018,09,29,10,30,16.10
2018,09,29,10,31,16.10
2018,09,29,10,32,16.10
2018,09,29,10,33,16.10
2018,09,29,10,34,16.20
2018,09,29,10,35,16.20
2018,09,29,10,36,16.20
2018,09,29,10,37,16.30
2018,09,29,10,38,16.30
2018,09,29,10,39,16.30
2018,09,29,10,40,16.30
2018,09,29,10,41,16.30
2018,09,29,10,42,16.30
2018,09,29,10,43,16.30
2018,09,29,10,44,16.30
2018,09,29,10,45,16.30
2018,09,29,10,46,16.40
2018,09,29,10,47,16.50
2018,09,29,10,48,16.60
2018,09,29,10,49,16.60
2018,09,29,10,50,16.70
2018,09,29,10,51,16.80
2018,09,29,10,52,16.90
2018,09,29,10,53,17.00
2018,09,29,10,54,17.20
2018,09,29,10,55,17.30
2018,09,29,10,56,17.40
2018,09,29,10,57,17.50
2018,09,29,10,58,17.60
2018,09,29,10,59,17.70
2018,09,29,11,00,17.80
2018,09,29,11,01,17.80
2018,09,29,11,02,17.90
2018,09,29,11,03,17.90
2018,09,29,11,04,18.00
2018,09,29,11,05,18.00
2018,09,29,11,06,18.10
2018,09,29,11,07,18.10
2018,09,29,11,08,18.20
2018,09,29,11,09,18.30
2018,09,29,11,10,18.40
2018,09,29,11,11,18.40
2018,09,29,11,12,18.50
2018,09,29,11,13,18.50
2018,09,29,11,14,18.60
2018,09,29,11,15,18.60
2018,09,29,11,16,18.60
2018,09,29,11,17,18.60
2018,09,29,11,18,18.60
2018,09,29,11,19,18.70
2018,09,29,11,20,18.70
2018,09,29,11,21,18.80
2018,09,29,11,22,18.80
2018,09,29,11,23,18.80
2018,09,29,11,24,18.90
2018,09,29,11,25,18.90
2018,09,29,11,26,18.90
2018,09,29,11,27,18.90
2018,09,29,11,28,19.00
2018,09,29,11,29,19.10
2018,09,29,11,30,19.20
2018,09,29,11,31,19.20
2018,09,29,11,32,19.30
2018,09,29,11,33,19.30
2018,09,29,11,34,19.30
2018,09,29,11,35,19.30
2018,09,29,11,36,19.30
2018,09,29,11,37,19.30
2018,09,29,11,38,19.40
2018,09,29,11,39,19.40
2018,09,29,11,40,19.40
2018,09,29,11,41,19.40
2018,09,29,11,42,19.40
2018,09,29,11,43,19.50
2018,09,29,11,44,19.50
2018,09,29,11,45,19.60
2018,09,29,11,46,19.50
2018,09,29,11,47,19.50
2018,09,29,11,48,19.40
2018,09,29,11,49,19.40
2018,09,29,11,50,19.40
2018,09,29,11,51,19.30
2018,09,29,11,52,19.30
2018,09,29,11,53,19.30
2018,09,29,11,54,19.20
2018,09,29,11,55,19.20
2018,09,29,11,56,19.20
2018,09,29,11,57,19.10
2018,09,29,11,58,19.10
2018,09,29,11,59,19.10
2018,09,29,12,00,19.10
2018,09,29,12,01,19.00
2018,09,29,12,02,19.00
2018,09,29,12,03,19.00
2018,09,29,12,04,19.00
2018,09,29,12,05,19.00
2018,09,29,12,06,19.10
2018,09,29,12,07,19.10
2018,09,29,12,08,19.00
2018,09,29,12,09,19.00
2018,09,29,12,10,19.00
2018,09,29,12,11,19.00
2018,09,29,12,12,18.90
2018,09,29,12,13,18.90
2018,09,29,12,14,19.00
2018,09,29,12,15,19.00
2018,09,29,12,16,19.10
2018,09,29,12,17,19.10
2018,09,29,12,18,19.20
2018,09,29,12,19,19.20
2018,09,29,12,20,19.20
2018,09,29,12,21,19.30
2018,09,29,12,22,19.30
2018,09,29,12,23,19.40
2018,09,29,12,24,19.40
2018,09,29,12,25,19.40
2018,09,29,12,26,19.40
2018,09,29,12,27,19.50
2018,09,29,12,28,19.50
2018,09,29,12,29,19.60
2018,09,29,12,30,19.70
2018,09,29,12,31,19.70
2018,09,29,12,32,19.80
2018,09,29,12,33,19.80
2018,09,29,12,34,19.80
2018,09,29,12,35,19.90
2018,09,29,12,36,19.90
2018,09,29,12,37,19.90
2018,09,29,12,38,19.80
2018,09,29,12,39,19.80
2018,09,29,12,40,19.70
2018,09,29,12,41,19.70
2018,09,29,12,42,19.60
2018,09,29,12,43,19.60
2018,09,29,12,44,19.50
2018,09,29,12,45,19.50
2018,09,29,12,46,19.50
2018,09,29,12,47,19.50
2018,09,29,12,48,19.40
2018,09,29,12,49,19.40
2018,09,29,12,50,19.50
2018,09,29,12,51,19.50
2018,09,29,12,52,19.50
2018,09,29,12,53,19.50
2018,09,29,12,54,19.50
2018,09,29,12,55,19.50
2018,09,29,12,56,19.50
2018,09,29,12,57,19.50
2018,09,29,12,58,19.50
2018,09,29,12,59,19.60
2018,09,29,13,00,19.60
2018,09,29,13,01,19.60
2018,09,29,13,02,19.60
2018,09,29,13,03,19.70
2018,09,29,13,04,19.70
2018,09,29,13,05,19.70
2018,09,29,13,06,19.80
2018,09,29,13,07,19.80
2018,09,29,13,08,19.80
2018,09,29,13,09,19.80
2018,09,29,13,10,19.90
2018,09,29,13,11,19.90
2018,09,29,13,12,19.90
2018,09,29,13,13,19.80
2018,09,29,13,14,19.80
2018,09,29,13,15,19.80
2018,09,29,13,16,19.70
2018,09,29,13,17,19.70
2018,09,29,13,18,19.70
2018,09,29,13,19,19.70
2018,09,29,13,20,19.70
2018,09,29,13,21,19.60
2018,09,29,13,22,19.60
2018,09,29,13,23,19.60
2018,09,29,13,24,19.60
2018,09,29,13,25,19.50
2018,09,29,13,26,19.50
2018,09,29,13,27,19.60
2018,09,29,13,28,19.50
2018,09,29,13,29,19.50
2018,09,29,13,30,19.50
2018,09,29,13,31,19.50
2018,09,29,13,32,19.60
2018,09,29,13,33,19.60
2018,09,29,13,34,19.60
2018,09,29,13,35,19.60
2018,09,29,13,36,19.50
2018,09,29,13,37,19.50
2018,09,29,13,38,19.40
2018,09,29,13,39,19.40
2018,09,29,13,40,19.40
2018,09,29,13,41,19.40
2018,09,29,13,42,19.40
2018,09,29,13,43,19.40
2018,09,29,13,44,19.40
2018,09,29,13,45,19.40
2018,09,29,13,46,19.40
2018,09,29,13,47,19.40
2018,09,29,13,48,19.40
2018,09,29,13,49,19.30
2018,09,29,13,50,19.30
2018,09,29,13,51,19.30
2018,09,29,13,52,19.20
2018,09,29,13,53,19.20
2018,09,29,13,54,19.10
2018,09,29,13,55,19.10
2018,09,29,13,56,19.10
2018,09,29,13,57,19.10
2018,09,29,13,58,19.00
2018,09,29,13,59,18.90
2018,09,29,14,00,18.90
2018,09,29,14,01,18.80
2018,09,29,14,02,18.60
2018,09,29,14,03,18.50
2018,09,29,14,04,18.40
2018,09,29,14,05,18.30
2018,09,29,14,06,18.20
2018,09,29,14,07,18.10
2018,09,29,14,08,18.00
2018,09,29,14,09,17.90
2018,09,29,14,10,17.80
2018,09,29,14,11,17.70
2018,09,29,14,12,17.60
2018,09,29,14,13,17.50
2018,09,29,14,14,17.50
2018,09,29,14,15,17.40
2018,09,29,14,16,17.40
2018,09,29,14,17,17.40
2018,09,29,14,18,17.30
2018,09,29,14,19,17.20
2018,09,29,14,20,17.20
2018,09,29,14,21,17.10
2018,09,29,14,22,17.00
2018,09,29,14,23,17.00
2018,09,29,14,24,17.00
2018,09,29,14,25,17.00
2018,09,29,14,26,17.00
2018,09,29,14,27,17.00
2018,09,29,14,28,17.00
2018,09,29,14,29,16.90
2018,09,29,14,30,16.90
2018,09,29,14,31,16.90
2018,09,29,14,32,16.90
2018,09,29,14,33,16.80
2018,09,29,14,34,16.80
2018,09,29,14,35,16.80
2018,09,29,14,36,16.80
2018,09,29,14,37,16.80
2018,09,29,14,38,16.70
2018,09,29,14,39,16.70
2018,09,29,14,40,16.70
2018,09,29,14,41,16.70
2018,09,29,14,42,16.70
2018,09,29,14,43,16.70
2018,09,29,14,44,16.70
2018,09,29,14,45,16.70
2018,09,29,14,46,16.70
2018,09,29,14,47,16.70
2018,09,29,14,48,16.70
2018,09,29,14,49,16.70
2018,09,29,14,50,16.80
2018,09,29,14,51,16.80
2018,09,29,14,52,16.80
2018,09,29,14,53,16.80
2018,09,29,14,54,16.80
2018,09,29,14,55,16.80
2018,09,29,14,56,16.80
2018,09,29,14,57,16.80
2018,09,29,14,58,16.70
2018,09,29,14,59,16.70
2018,09,29,15,00,16.70
2018,09,29,15,01,16.70
2018,09,29,15,02,16.70
2018,09,29,15,03,16.70
2018,09,29,15,04,16.70
2018,09,29,15,05,16.70
2018,09,29,15,06,16.70
2018,09,29,15,07,16.60
2018,09,29,15,08,16.60
2018,09,29,15,09,16.60
2018,09,29,15,10,16.60
2018,09,29,15,11,16.50
2018,09,29,15,12,16.50
2018,09,29,15,13,16.50
2018,09,29,15,14,16.50
2018,09,29,15,15,16.50
2018,09,29,15,16,16.40
2018,09,29,15,17,16.40
2018,09,29,15,18,16.40
2018,09,29,15,19,16.40
2018,09,29,15,20,16.40
2018,09,29,15,21,16.40
2018,09,29,15,22,16.40
2018,09,29,15,23,16.40
2018,09,29,15,24,16.40
2018,09,29,15,25,16.40
2018,09,29,15,26,16.40
2018,09,29,15,27,16.40
2018,09,29,15,28,16.40
2018,09,29,15,29,16.40
2018,09,29,15,30,16.40
2018,09,29,15,31,16.40
2018,09,29,15,32,16.40
2018,09,29,15,33,16.40
2018,09,29,15,34,16.40
2018,09,29,15,35,16.40
2018,09,29,15,36,16.40
2018,09,29,15,37,16.40
2018,09,29,15,38,16.40
2018,09,29,15,39,16.30
2018,09,29,15,40,16.30
2018,09,29,15,41,16.30
2018,09,29,15,42,16.30
2018,09,29,15,43,16.30
2018,09,29,15,44,16.30
2018,09,29,15,45,16.30
2018,09,29,15,46,16.30
2018,09,29,15,47,16.30
2018,09,29,15,48,16.30
2018,09,29,15,49,16.20
2018,09,29,15,50,16.20
2018,09,29,15,51,16.20
2018,09,29,15,52,16.20
2018,09,29,15,53,16.20
2018,09,29,15,54,16.10
2018,09,29,15,55,16.10
2018,09,29,15,56,16.10
2018,09,29,15,57,16.10
2018,09,29,15,58,16.10
2018,09,29,15,59,16.10
2018,09,29,16,00,16.10
2018,09,29,16,01,16.10
2018,09,29,16,02,16.00
2018,09,29,16,03,16.00
2018,09,29,16,04,16.00
2018,09,29,16,05,16.00
2018,09,29,16,06,16.00
2018,09,29,16,07,15.90
2018,09,29,16,08,15.90
2018,09,29,16,09,15.90
2018,09,29,16,10,15.90
2018,09,29,16,11,15.80
2018,09,29,16,12,15.80
2018,09,29,16,13,15.80
2018,09,29,16,14,15.80
2018,09,29,16,15,15.80
2018,09,29,16,16,15.80
2018,09,29,16,17,15.70
2018,09,29,16,18,15.70
2018,09,29,16,19,15.70
2018,09,29,16,20,15.70
2018,09,29,16,21,15.70
2018,09,29,16,22,15.70
2018,09,29,16,23,15.70
2018,09,29,16,24,15.70
2018,09,29,16,25,15.70
2018,09,29,16,26,15.70
2018,09,29,16,27,15.70
2018,09,29,16,28,15.70
2018,09,29,16,29,15.70
2018,09,29,16,30,15.70
2018,09,29,16,31,15.70
2018,09,29,16,32,15.70
2018,09,29,16,33,15.70
2018,09,29,16,34,15.70
2018,09,29,16,35,15.70
2018,09,29,16,36,15.70
2018,09,29,16,37,15.70
2018,09,29,16,38,15.70
2018,09,29,16,39,15.70
2018,09,29,16,40,15.70
2018,09,29,16,41,15.70
2018,09,29,16,42,15.70
2018,09,29,16,43,15.70
2018,09,29,16,44,15.70
2018,09,29,16,45,15.70
2018,09,29,16,46,15.70
2018,09,29,16,47,15.70
2018,09,29,16,48,15.70
2018,09,29,16,49,15.70
2018,09,29,16,50,15.70
2018,09,29,16,51,15.70
2018,09,29,16,52,15.70
2018,09,29,16,53,15.70
2018,09,29,16,54,15.70
2018,09,29,16,55,15.70
2018,09,29,16,56,15.70
2018,09,29,16,57,15.70
2018,09,29,16,58,15.70
2018,09,29,16,59,15.70
2018,09,29,17,00,15.70
2018,09,29,17,01,15.70
2018,09,29,17,02,15.70
2018,09,29,17,03,15.70
2018,09,29,17,04,15.70
2018,09,29,17,05,15.70
2018,09,29,17,06,15.70
2018,09,29,17,07,15.70
2018,09,29,17,08,15.70
2018,09,29,17,09,15.70
2018,09,29,17,10,15.70
2018,09,29,17,11,15.70
2018,09,29,17,12,15.70
2018,09,29,17,13,15.70
2018,09,29,17,14,15.70
2018,09,29,17,15,15.70
2018,09,29,17,16,15.70
2018,09,29,17,17,15.70
2018,09,29,17,18,15.70
2018,09,29,17,19,15.70
2018,09,29,17,20,15.70
2018,09,29,17,21,15.70
2018,09,29,17,22,15.70
2018,09,29,17,23,15.70
2018,09,29,17,24,15.70
2018,09,29,17,25,15.70
2018,09,29,17,26,15.60
2018,09,29,17,27,15.60
2018,09,29,17,28,15.60
2018,09,29,17,29,15.60
2018,09,29,17,30,15.60
2018,09,29,17,31,15.60